|   |  | Asteroid 2014 MA6
					
					
					
					
						
					
					
						
							(Preview) 
						
							
								The 35 - 78 metre wide asteroid 2014 MA6 will make a close pass (18.9 lunar distances, 0.0486 AU), travelling at 3.78 km/second, to the Earth-Moon system on the 23rd July 2014 @ 00:57 UT ±00:01.  See more The Lunar Distance (LD), the distance between Earth and the Moon, equals 384,401 km, (or 0.00256 AU... | Blobrana | 0 |  |  | 
		
			
			
				
				
					|   |  | Asteroid 2014 MJ55
					
					
					
					
						
					
					
						
							(Preview) 
						
							
								The 46 - 100 metre wide asteroid 2014 MJ55 will make a close pass (28.9 lunar distances, 0.0744 AU), travelling at 13.75 km/second, to the Earth-Moon system on the 23rd July 2014 @ 12:26 UT ±00:11.  See more The Lunar Distance (LD), the distance between Earth and the Moon, equals 384,401 km, (or 0.0025...  | Blobrana | 0 |  |  | 
		
			
			
				
				
					|   |  | Asteroid (26616) 2000 GG6
					
					
					
					
						
					
					
						
							(Preview) 
						
							
								On 2014 July 22, the 11 km diameter asteroid (26616) 2000 GG6 will occult the 5.4 mag star HD 163532 in the constellation Ophiuchus for observers along a path across SE USA. Read more | Blobrana | 0 |  |  | 
		
			
			
				
				
					|   |  | Asteroid (665) Sabine
					
					
					
					
						
					
					
						
							(Preview) 
						
							
								Asteroid (665) Sabine is at opposition on the 2nd July 2014.    Magnitude: 12.0   Distance to Sun: 2.64 AU   Distance to Earth: 1.63 AU EphemerisDate       UT      R.A. (J2000) Decl.    Delta     r     El.    Ph.   Mag
2014 07 01 000000 18 48 51.4 -30 45 32   1.625   2.635  172.1   3.1  12.1
2014 07 02 000000 18 47 51.7 -30 40 46   1.625   2.636  172.3   3... | Blobrana | 1 |  |  | 
		
			
			
				
				
					|   |  | Asteroid 2014 ER49
					
					
					
					
						
					
					
						
							(Preview) 
						
							
								Orbital elements:
2014 ER49                                           PHA, Earth MOID = 0.0158 AU
Epoch 2014 May 23.0 TT = JDT 2456800.5                  MPC
M 352.76391              (2000.0)            P               Q
n   0.20744704     Peri.  159.97921     -0.15650557     +0.95979966
a   2.8261674      Node   100.46008     -0.93538193     -0.06828950
e   0.6424069      Incl.   13.70607     -0.31712245     -0.27225202
P   4.75           H... | Blobrana | 1 |  |  | 
		
			
			
				
				
					|   |  | Asteroid (7222) Alekperov
					
					
					
					
						
					
					
						
							(Preview) 
						
							
								Asteroid (7222) Alekperov / HIP  86060 event On 2014 July 20, asteroid 7222 Alekperov will occult a 6.5 mag star for Australian observers. Read more | Blobrana | 0 |  |  | 
		
			
			
				
				
					|   |  | Asteroid 2014 ML550
					
					
					
					
						
					
					
						
							(Preview) 
						
							
								The 62 - 140 metre wide asteroid 2014 ML55 will make a close pass (69.6 lunar distances, 0.1789 AU), travelling at 5.48 km/second, to the Earth-Moon system on the 19th July 2014 @ 23:30 UT ±01:07.  See more The Lunar Distance (LD), the distance between Earth and the Moon, equals 384,401 km, (or 0.00256...  | Blobrana | 0 |  |  | 
		
			
			
				
				
					|   |  | Asteroid (11066) Sigurd
					
					
					
					
						
					
					
						
							(Preview) 
						
							
								Asteroid (11066) Sigurd 1992 CC1 makes its closest approach to the Earth (0.789 AU) on the 18th July 2014 EphemerisDate    TT    R. A. (2000) Decl.     Delta      r     Elong.  Phase     Mag
2014 07 15    03 33 02.2 +10 54 55   0.7905  0.9110    59.0    73.0    17.0
2014 07 16    03 36 30.8 +12 03 46   0.7899  0.9077    58.8    73.2    17.0
2014 07 17    03 40 03.1... | Blobrana | 0 |  |  | 
		
			
			
				
				
					|   |  | Asteroid 2014 MV41
					
					
					
					
						
					
					
						
							(Preview) 
						
							
								The 37 - 82 metre wide asteroid 2014 MV41 made a close pass (10.6 lunar distances, 0.0272 AU), travelling at 14.00 km/second, to the Earth-Moon system on the 17th July 2014 @ 03:37 UT ±00:01.  See more The Lunar Distance (LD), the distance between Earth and the Moon, equals 384,401 km, (or 0.00256 AU).... | Blobrana | 0 |  |  | 
		
			
			
				
				
					|   |  | Asteroid 2006 SD25
					
					
					
					
						
					
					
						
							(Preview) 
						
							
								The 42 - 94 metre wide asteroid 2006 SD25 will make a close pass (57.1 lunar distances, 0.1468 AU), travelling at 11.09 km/second, to the Earth-Moon system on the 16th July 2014 @ 10:33 UT ±2 days 05:44.  See more The Lunar Distance (LD), the distance between Earth and the Moon, equals 384,401 km, (or 0....  | Blobrana | 0 |  |  | 
		
			
			
				
				
					|   |  | Asteroid (274860) Emilylakdawalla 2009 RE26
					
					
					
					
						
					
					
						
							(Preview) 
						
							
								Asteroid 274860 (2009 RE26): Discovered 2009-Sep-13 by ESA OGS at ESA OGS (J04) 2009 RE26 = 2006 CM60 Source Read more | Blobrana | 0 |  |  | 
		
			
			
				
				
					|   |  | Asteroid 2011 MF
					
					
					
					
						
					
					
						
							(Preview) 
						
							
								The 120 - 260 metre wide asteroid 2011 MF will make a close pass (45.2 lunar distances, 0.1161 AU), travelling at 6.85 km/second, to the Earth-Moon system on the 13th July 2014 @ 06:00 UT ±00:01.  See more The Lunar Distance (LD), the distance between Earth and the Moon, equals 384,401 km, (or 0.00256 A... | Blobrana | 0 |  |  | 
		
			
			
				
				
					|   |  | Asteroid 2014 MS5
					
					
					
					
						
					
					
						
							(Preview) 
						
							
								The 73 - 160 metre wide asteroid 2014 MS5 will make a close pass (17.5 lunar distances, 0.0449 AU), travelling at 11.85 km/second, to the Earth-Moon system on the 13th July 2014 @ 06:18 UT ±00:01.  See more The Lunar Distance (LD), the distance between Earth and the Moon, equals 384,401 km, (or 0.00256...  | Blobrana | 0 |  |  | 
		
			
			
				
				
					|   |  | Asteroid 2014 NB3
					
					
					
					
						
					
					
						
							(Preview) 
						
							
								The 30 - 68 metre wide asteroid 2014 NB3 will make a close pass (37.6 lunar distances, 0.0967 AU), travelling at 7.28 km/second, to the Earth-Moon system on the 13th July 2014 @ 09:36 UT ±00:09.  See more The Lunar Distance (LD), the distance between Earth and the Moon, equals 384,401 km, (or 0.00256 AU... | Blobrana | 0 |  |  | 
		
			
			
				
				
					|   |  | Asteroid 2014 LX21
					
					
					
					
						
					
					
						
							(Preview) 
						
							
								The 51 - 110 metre wide asteroid 2014 LX21 will make a close pass (26.1 lunar distances, 0.0670 AU), travelling at 6.88 km/second, to the Earth-Moon system on the 12th July 2014 @ 13:30 UT ±00:01.  See more The Lunar Distance (LD), the distance between Earth and the Moon, equals 384,401 km, (or 0.00256...  | Blobrana | 0 |  |  |